Other Surface Observations
Issued by NWS Charleston, SC

Home | Current Version | Previous Version | Text Only | Print | Product List | Glossary On
Versions: 1 2 3 4 5 6 7 8 9 10 11 12 13 14 15 16 17 18 19 20 21 22 23 24 25 26 27 28 29 30 31 32 33 34 35 36 37 38 39 40 41 42 43 44 45 46 47 48 49 50
000
SXUS52 KCHS 040527
OSOCHS

MARINE OBSERVATIONS
NATIONAL WEATHER SERVICE CHARLESTON SC
100 AM EDT SAT JUL 04 2015

...DOWNTOWN CHARLESTON AND HARBOR...

CITY           SKY/WX    TMP DP  RH WIND       PRES   REMARKS
WATERFRONT PRK   N/A     81  77  88 SW9       29.99F
FORT JOHNSON   NOT AVBL

...LAKE MOULTRIE...

CITY           SKY/WX    TMP DP  RH WIND       PRES   REMARKS
PINOPOLIS      NOT AVBL

...LAKE AND SUPPLEMENTAL COASTAL OBSERVATIONS...

STATION/POSITION TIME  TEMP    WIND        PRES    WAVE   SWELL
                       AIR SEA DIR/SP/G            HT/PER HT/PER/DIR
                 (UTC) (F)     (DEG/KT/KT) (MB)    (FT/S) (FT/S/D)
FORT PULASKI     0500   82 84  200/ 11/ 15 1017.7F
SAPELO ISLAND    0500   80     190/ 10     1017.0F
UPR LAKE MARION  NOT AVBL
WINYAH BAY       0445   77     250/  5     1015.0S
LAKE MURRAY      0500   79     220/  8/ 11 1015.2F
ACE BASIN NERRS  NOT AVBL


...C-MAN AND BUOY OBSERVATIONS...

STATION/POSITION TIME  TEMP    WIND        PRES    WAVE   SWELL
                       AIR SEA DIR/SP/G            HT/PER HT/PER/DIR
                 (UTC) (F)     (DEG/KT/KT) (MB)    (FT/S) (FT/S/D)
BUOY 41004       0450   83 81  210/ 19/ 23 1015.9F   4/ 9   2/ 9
BUOY 41008       0450   80 79  200/ 17/ 21 1017.5F   3/ 9   2/140/ 9
FOLLY BEACH CMAN 0500   81     230/ 15/ 19 1016.6F
CAPERS NS BUOY   0408   82     230/ 19/ 25 1017.3R
FRIPP NS BUOY    0400   83     210/ 19/ 23 1016.9R
5E ST. MARYS GA  0421      77                N/A     3/ 4


STATION/POSITION TIME  TEMP    WIND        PRES    WAVE   SWELL
                       AIR SEA DIR/SP/G            HT/PER HT/PER/DIR
                 (UTC) (F)     (DEG/KT/KT) (MB)    (FT/S) (FT/S/D)
FRYING PAN BUOY  0450   81 79  210/ 21/ 25 1015.6R   7/ 6   2/170/ 9
BUOY 41025       0450   80 81  230/ 25/ 29 1012.5R   7/ 7   2/180/ 9
CAPE LOOKOUT NC  0500   80     240/ 19/ 25 1013.8R
BUOY 41002       0450   81 80  230/ 14/ 16 1019.2F   5/ 6   3/130/ 8
BUOY 41010       0420   83 84  170/ 10/ 10 1020.2F
ST AUGUSTINE FL  0500   79 73  230/  6/  9 1019.8F

$$



USA.gov is the U.S. government's official web portal to all federal, state and local government web resources and services.